STARLINK-32369, 60917

Orbit data source: Space-Track

STARLINK-32369, 60917 is a payload satellite owned by SpaceX/Seattle (US) in LEO that was launched on Sat, 31 Aug 2024 UTC via an FALCON 9 launch vehicle from the Air Force Eastern Test Range (AFETR). Payload-class satellites include a variety of spacecraft equipped with specific instruments for various scientific and technological missions. These include communications satellites like Starlink; space stations such as the ISS; scientific satellites like the Hubble; Earth observation satellites from companies like Planet Labs, Umbra, and HawkEye 360; GPS; miniature CubeSats for education and research; and military/defense satellites.

Loading next visibility...
Identifier
60917, 2024-154Q
Orbit
LEO
Country
Flag of USUS
Related business
Manufacturer
SpaceX/Seattle
Mission
Operational Commercial Communications
Bus & Motor
STARLINK V2M, Unknown motor
Mass
730 kg wet, ~700 kg dry
Launch date (UTC)
2024-08-31 (2 years ago)
Launch vehicle
FALCON 9
Launch site
Air Force Eastern Test Range (AFETR)
Object type
Payload
Rocket body
Debris
Shape & HBR
Box + 2 Pan, 17.7 m
Radar Cross Section
33.884 m², Large (>1 m²)

Expand to show TLE details & history
Last TLE update: 13 hours ago

TLE from 13 hours ago
0 STARLINK-32369
1 60917U 24154Q   26129.92763853 -.00001700  00000-0 -45296-4 0  9992
2 60917  53.1614 359.1966 0001103 105.8792 254.2331 15.30197012 95712
Epoch: 2026-05-09T22:15Z
TLE epoch observation values (Epoch: 2026-05-09T22:15:47.968Z)
Latitude
Longitude
157.50869°
Altitude
476.329 km
Speed
7.629 km/s
True Right ascension
23h 56m 47s
True Declination
0° 00' 00"
Sunlit
Object was in daylight at epoch
Visualization orbit readout
Latitude
Unknown
Longitude
Unknown
Altitude
Unknown
Speed
Unknown
Apparent Right ascension
Unknown
Apparent Declination
Unknown
Sunlit
N/A
Visualization observer readout
Local Sidereal Time
19:51:19
Azimuth
Unknown
Elevation
Unknown
Doppler factor
Unknown
Orbital elements
Apogee altitude
476.236 km
Perigee altitude
474.724 km
Semi-major axis
6,853.617 km
Eccentricity
0.00011
Inclination
53.1614°
RAAN
359.1966°
Arg. of periapsis
105.8792°
True anomaly
254.22094°
Mean anomaly
254.2331°
Eccentric anomaly
254.22702°
Mean motion
3.82528 °/min
Orbital period
94.11 mins
BSTAR
-0.000045296
Loading maneuver chart data...
Computing Atmospheric mass density...
Loading historical data...
Loading historical data...
Loading historical data...
Loading historical data...
Loading historical data...
Loading historical data...
Loading historical data...

Documentation

Showing up to 5 results
|